Voltar ao catálogo

FENGYUN 1C DEB

AtivoPO
NORAD 36703·DEBRIS·🇨🇳 China

Lançado May 10, 1999 de Taiyuan Satellite Launch Center

Loading…

Próximas Passagens (próximas 24 horas)

TLE

EnvelhecendoSource: Space-Track

Época: Sep 10, 2026, 04:31 UTC

1 36703U 99025DZZ 26253.18856902  .00003976  00000-0  16666-2 0  9993
2 36703  97.8167  35.4084 0097717 221.0224 138.3579 14.23894544621310

Acompanhe FENGYUN 1C DEB em tempo real com AllMySat

Download on the App Store